This is the latest recevied weather packets stored in our database for station/object N0NPO. If no packets are shown the sender has not sent any weather packets the latest 10 day(s).
| Time | Temp. | Humidity | Pressure | Rain* | Wind** | Luminosity | Snow |
|---|---|---|---|---|---|---|---|
| 1777595870 | 11.11° C | 1% | 1021.4 hPa | 0 mm | - | 79 W/m² | - |
| 1777595570 | 11.11° C | 1% | 1021.6 hPa | 0 mm | - | 88 W/m² | - |
| 1777595266 | 11.67° C | 1% | 1021.4 hPa | 0 mm | - | 99 W/m² | - |
| 1777594962 | 11.67° C | 1% | 1021.3 hPa | 0 mm | - | 110 W/m² | - |
| 1777594659 | 12.22° C | 1% | 1021.2 hPa | 0 mm | - | 122 W/m² | - |
| 1777594356 | 12.22° C | 1% | 1021.5 hPa | 0 mm | - | 126 W/m² | - |
| 1777594052 | 12.78° C | 1% | 1021.2 hPa | 0 mm | - | 138 W/m² | - |
| 1777593747 | 12.78° C | 1% | 1021.3 hPa | 0 mm | - | 160 W/m² | - |
| 1777593444 | 13.33° C | 1% | 1021.5 hPa | 0 mm | - | 210 W/m² | - |
| 1777593142 | 12.78° C | 1% | 1021.3 hPa | 0 mm | - | 202 W/m² | - |
| 1777592841 | 12.22° C | 1% | 1021.5 hPa | 0 mm | - | 202 W/m² | - |
| 1777592539 | 12.22° C | 1% | 1021.5 hPa | 0 mm | - | 226 W/m² | - |
| 1777592234 | 12.78° C | 1% | 1021.4 hPa | 0 mm | - | 220 W/m² | - |
| 1777591931 | 11.67° C | 1% | 1021.5 hPa | 0 mm | - | 241 W/m² | - |
| 1777591627 | 12.22° C | 1% | 1021.4 hPa | 0 mm | - | 75 W/m² | - |
| 1777591323 | 12.78° C | 1% | 1021.6 hPa | 0 mm | - | 340 W/m² | - |
| 1777591019 | 11.67° C | 1% | 1021.6 hPa | 0 mm | - | 120 W/m² | - |
| 1777590714 | 11.67° C | 1% | 1021.6 hPa | 0 mm | - | 111 W/m² | - |
| 1777590410 | 12.22° C | 1% | 1021.5 hPa | 0 mm | - | 106 W/m² | - |
| 1777590108 | 12.78° C | 1% | 1021.4 hPa | 0 mm | - | 256 W/m² | - |
| 1777589804 | 12.78° C | 1% | 1021.5 hPa | 0 mm | - | 330 W/m² | - |
| 1777589504 | 12.78° C | 1% | 1021.4 hPa | 0 mm | - | 378 W/m² | - |
| 1777589198 | 12.78° C | 1% | 1021.6 hPa | 0 mm | - | 372 W/m² | - |
| 1777588895 | 12.78° C | 1% | 1021.5 hPa | 0 mm | - | 409 W/m² | - |
| 1777588591 | 12.78° C | 1% | 1021.3 hPa | 0 mm | - | 426 W/m² | - |
* Rain latest hour (hover to see other rain measurements)
** Current wind speed in m/s (hover to see current wind gust speed)